Location: Gravenhurst
(44.9196°N, 79.3742°W)
Time: 19:45:31
(UTC-05:00)

N. Korean satellite - Pass Details

Date: 31 October 2019
Orbit: 456 x 506 km, 97.2° (Epoch: 12 November)

Event Time Altitude Azimuth Distance (km) Brightness Sun altitude
Rises 07:05:24 0° 14° (NNE) 2,597 10.3 -9.2°
Reaches altitude 10° 07:07:30 10° 18° (NNE) 1,714 9.4 -8.8°
Maximum altitude 07:11:11 66° 101° (E) 552 7.1 -8.2°
Drops below altitude 10° 07:14:52 10° 184° (S) 1,713 9.5 -7.5°
Sets 07:16:57 0° 187° (S) 2,595 10.3 -7.2°
